Year,Month,Day,Hour,Minute,Value (Times are PST for temperature in C)
2007,06,18,06,53,11.50
2007,06,18,06,54,11.50
2007,06,18,06,55,11.50
2007,06,18,06,56,11.50
2007,06,18,06,57,11.50
2007,06,18,06,58,11.50
2007,06,18,06,59,11.50
2007,06,18,07,00,11.50
2007,06,18,07,01,11.60
2007,06,18,07,02,11.60
2007,06,18,07,03,11.60
2007,06,18,07,04,11.60
2007,06,18,07,05,11.60
2007,06,18,07,06,11.60
2007,06,18,07,07,11.50
2007,06,18,07,08,11.50
2007,06,18,07,09,11.50
2007,06,18,07,10,11.50
2007,06,18,07,11,11.50
2007,06,18,07,12,11.50
2007,06,18,07,13,11.50
2007,06,18,07,14,11.50
2007,06,18,07,15,11.50
2007,06,18,07,16,11.50
2007,06,18,07,17,11.50
2007,06,18,07,18,11.50
2007,06,18,15,13,15.40
2007,06,18,15,14,15.50
2007,06,18,15,15,15.60
2007,06,18,15,16,15.70
2007,06,18,15,17,15.80
2007,06,18,15,18,16.00
2007,06,18,15,19,16.10
2007,06,18,15,20,16.10
2007,06,18,15,21,16.10
2007,06,18,15,22,16.10
2007,06,18,15,23,16.10
2007,06,18,15,24,16.10
2007,06,18,15,25,16.00
2007,06,18,15,26,15.90
2007,06,18,15,27,15.90
2007,06,18,15,28,15.90
2007,06,18,15,29,15.80
2007,06,18,15,30,15.80
2007,06,18,15,31,15.80
2007,06,18,15,32,15.80
2007,06,18,15,33,15.80
2007,06,18,15,34,15.70
2007,06,18,15,35,15.50
2007,06,18,15,36,15.50
2007,06,18,15,37,15.50
2007,06,18,15,38,15.60
2007,06,18,15,39,15.60
2007,06,18,15,40,15.60
2007,06,18,15,41,15.70
2007,06,18,15,42,15.70
2007,06,18,15,43,15.80
2007,06,18,15,44,15.80
2007,06,18,15,45,15.80
2007,06,18,15,46,15.80
2007,06,18,15,47,15.80
2007,06,18,15,48,15.80
2007,06,18,15,49,15.80
2007,06,18,15,50,15.80
2007,06,18,15,51,15.90
2007,06,18,15,52,15.90
2007,06,18,15,53,16.00
2007,06,18,15,54,16.10
2007,06,18,15,55,16.10
2007,06,18,15,56,16.10
2007,06,18,15,57,16.10
2007,06,18,15,58,16.10
2007,06,18,15,59,16.10
2007,06,18,16,00,16.20
2007,06,18,16,01,16.20
2007,06,18,16,02,16.20
2007,06,18,16,03,16.20
2007,06,18,16,04,16.20
2007,06,18,16,05,16.20
2007,06,18,16,06,16.30
2007,06,18,16,07,16.20
2007,06,18,16,08,16.20
2007,06,18,16,09,16.20
2007,06,18,16,10,16.20
2007,06,18,16,11,16.30
2007,06,18,16,12,16.30
2007,06,18,16,13,16.40
2007,06,18,16,14,16.40
2007,06,18,16,15,16.40
2007,06,18,16,16,16.40
2007,06,18,16,17,16.40
2007,06,18,16,18,16.30
2007,06,18,16,19,16.20
2007,06,18,16,20,16.10
2007,06,18,16,21,16.10
2007,06,18,16,22,16.10
2007,06,18,16,23,16.00
2007,06,18,16,24,15.90
2007,06,18,16,25,15.90
2007,06,18,16,26,15.90
2007,06,18,16,27,15.90
2007,06,18,16,28,15.90
2007,06,18,16,29,15.90
2007,06,18,16,30,15.90
2007,06,18,16,31,16.00
2007,06,18,16,32,16.00
2007,06,18,16,33,16.10
2007,06,18,16,34,16.30
2007,06,18,16,35,16.30
2007,06,18,16,36,16.30
2007,06,18,16,37,16.30
2007,06,18,16,38,16.30
2007,06,18,16,39,16.30
2007,06,18,16,40,16.30
2007,06,18,16,41,16.20
2007,06,18,16,42,16.10
2007,06,18,16,43,16.10
2007,06,18,16,44,16.20
2007,06,18,16,45,16.30
2007,06,18,16,46,16.40
2007,06,18,16,47,16.40
2007,06,18,16,48,16.50
2007,06,18,16,49,16.50
2007,06,18,16,50,16.50
2007,06,18,16,51,16.40
2007,06,18,16,52,16.50
2007,06,18,16,53,16.50
2007,06,18,16,54,16.40
2007,06,18,16,55,16.40
2007,06,18,16,56,16.40
2007,06,18,16,57,16.30
2007,06,18,16,58,16.20
2007,06,18,16,59,16.20
2007,06,18,17,00,16.20
2007,06,18,17,01,16.20
2007,06,18,17,02,16.30
2007,06,18,17,03,16.20
2007,06,18,17,04,16.20
2007,06,18,17,05,16.10
2007,06,18,17,06,16.00
2007,06,18,17,07,16.00
2007,06,18,17,08,16.10
2007,06,18,17,09,16.10
2007,06,18,17,10,16.20
2007,06,18,17,11,16.20
2007,06,18,17,12,16.20
2007,06,18,17,13,16.30
2007,06,18,17,14,16.20
2007,06,18,17,15,16.20
2007,06,18,17,16,16.30
2007,06,18,17,17,16.30
2007,06,18,17,18,16.30
2007,06,18,17,19,16.40
2007,06,18,17,20,16.50
2007,06,18,17,21,16.60
2007,06,18,17,22,16.60
2007,06,18,17,23,16.60
2007,06,18,17,24,16.60
2007,06,18,17,25,16.70
2007,06,18,17,26,16.80
2007,06,18,17,27,16.80
2007,06,18,17,28,16.80
2007,06,18,17,29,16.80
2007,06,18,17,30,16.80
2007,06,18,17,31,16.90
2007,06,18,17,32,17.00
2007,06,18,17,33,17.00
2007,06,18,17,34,17.00
2007,06,18,17,35,17.00
2007,06,18,17,36,17.10
2007,06,18,17,37,17.00
2007,06,18,17,38,16.90
2007,06,18,17,39,16.80
2007,06,18,17,40,16.70
2007,06,18,17,41,16.60
2007,06,18,17,42,16.60
2007,06,18,17,43,16.60
2007,06,18,17,44,16.50
2007,06,18,17,45,16.50
2007,06,18,17,46,16.50
2007,06,18,17,47,16.60
2007,06,18,17,48,16.70
2007,06,18,17,49,16.80
2007,06,18,17,50,16.80
2007,06,18,17,51,16.80
2007,06,18,17,52,16.70
2007,06,18,17,53,16.60
2007,06,18,17,54,16.50
2007,06,18,17,55,16.50
2007,06,18,17,56,16.40
2007,06,18,17,57,16.40
2007,06,18,17,58,16.50
2007,06,18,17,59,16.60
2007,06,18,18,00,16.60
2007,06,18,18,01,16.60
2007,06,18,18,02,16.50
2007,06,18,18,03,16.60
2007,06,18,18,04,16.50
2007,06,18,18,05,16.50
2007,06,18,18,06,16.40
2007,06,18,18,07,16.40
2007,06,18,18,08,16.40
2007,06,18,18,09,16.40
2007,06,18,18,10,16.40
2007,06,18,18,11,16.40
2007,06,18,18,12,16.40
2007,06,18,18,13,16.40
2007,06,18,18,14,16.40
2007,06,18,18,15,16.50
2007,06,18,18,16,16.60
2007,06,18,18,17,16.60
2007,06,18,18,18,16.60
2007,06,18,18,19,16.60
2007,06,18,18,20,16.60
2007,06,18,18,21,16.60
2007,06,18,18,22,16.60
2007,06,18,18,23,16.60
2007,06,18,18,24,16.50
2007,06,18,18,25,16.50
2007,06,18,18,26,16.40
2007,06,18,18,27,16.40
2007,06,18,18,28,16.40
2007,06,18,18,29,16.40
2007,06,18,18,30,16.40
2007,06,18,18,31,16.50
2007,06,18,18,32,16.60
2007,06,18,18,33,16.60
2007,06,18,18,34,16.60
2007,06,18,18,35,16.60
2007,06,18,18,36,16.60
2007,06,18,18,37,16.60
2007,06,18,18,38,16.60
2007,06,18,18,39,16.50
2007,06,18,18,40,16.50
2007,06,18,18,41,16.50
2007,06,18,18,42,16.40
2007,06,18,18,43,16.40
2007,06,18,18,44,16.40
2007,06,18,18,45,16.30
2007,06,18,18,46,16.30
2007,06,18,18,47,16.30
2007,06,18,18,48,16.30
2007,06,18,18,49,16.30
2007,06,18,18,50,16.30
2007,06,18,18,51,16.30
2007,06,18,18,52,16.30
2007,06,18,18,53,16.40
2007,06,18,18,54,16.40
2007,06,18,18,55,16.50
2007,06,18,18,56,16.60
2007,06,18,18,57,16.60
2007,06,18,18,58,16.60
2007,06,18,18,59,16.50
2007,06,18,19,00,16.60
2007,06,18,19,01,16.60
2007,06,18,19,02,16.60
2007,06,18,19,03,16.60
2007,06,18,19,04,16.60
2007,06,18,19,05,16.60
2007,06,18,19,06,16.60
2007,06,18,19,07,16.50
2007,06,18,19,08,16.50
2007,06,18,19,09,16.50
2007,06,18,19,10,16.50
2007,06,18,19,11,16.50
2007,06,18,19,12,16.30
2007,06,18,19,13,16.30
2007,06,18,19,14,16.20
2007,06,18,19,15,16.20
2007,06,18,19,16,16.20
2007,06,18,19,17,16.20
2007,06,18,19,18,16.30
2007,06,18,19,19,16.20
2007,06,18,19,20,16.20
2007,06,18,19,21,16.20
2007,06,18,19,22,16.20
2007,06,18,19,23,16.30
2007,06,18,19,24,16.30
2007,06,18,19,25,16.30
2007,06,18,19,26,16.40
2007,06,18,19,27,16.40
2007,06,18,19,28,16.40
2007,06,18,19,29,16.40
2007,06,18,19,30,16.30
2007,06,18,19,31,16.30
2007,06,18,19,32,16.30
2007,06,18,19,33,16.30
2007,06,18,19,34,16.30
2007,06,18,19,35,16.30
2007,06,18,19,36,16.20
2007,06,18,19,37,16.10
2007,06,18,19,38,16.00
2007,06,18,19,39,16.00
2007,06,18,19,40,16.00
2007,06,18,19,41,15.90
2007,06,18,19,42,15.80
2007,06,18,19,43,15.80
2007,06,18,19,44,15.80
2007,06,18,19,45,15.80
2007,06,18,19,46,15.70
2007,06,18,19,47,15.70
2007,06,18,19,48,15.70
2007,06,18,19,49,15.70
2007,06,18,19,50,15.70
2007,06,18,19,51,15.70
2007,06,18,19,52,15.60
2007,06,18,19,53,15.60
2007,06,18,19,54,15.60
2007,06,18,19,55,15.60
2007,06,18,19,56,15.60
2007,06,18,19,57,15.50
2007,06,18,19,58,15.50
2007,06,18,19,59,15.40
2007,06,18,20,00,15.40
2007,06,18,20,01,15.30
2007,06,18,20,02,15.30
2007,06,18,20,03,15.30
2007,06,18,20,04,15.30
2007,06,18,20,05,15.30
2007,06,18,20,06,15.30
2007,06,18,20,07,15.30
2007,06,18,20,08,15.30
2007,06,18,20,09,15.20
2007,06,18,20,10,15.20
2007,06,18,20,11,15.20
2007,06,18,20,12,15.20
2007,06,18,20,13,15.20
2007,06,18,20,14,15.10
2007,06,18,20,15,15.00
2007,06,18,20,16,15.00
2007,06,18,20,17,15.00
2007,06,18,20,18,15.00
2007,06,18,20,19,15.00
2007,06,18,20,20,15.00
2007,06,18,20,21,14.90
2007,06,18,20,22,14.80
2007,06,18,20,23,14.80
2007,06,18,20,24,14.80
2007,06,18,20,25,14.70
2007,06,18,20,26,14.70
2007,06,18,20,27,14.70
2007,06,18,20,28,14.60
2007,06,18,20,29,14.60
2007,06,18,20,30,14.60
2007,06,18,20,31,14.60
2007,06,18,20,32,14.60
2007,06,18,20,33,14.50
2007,06,18,20,34,14.50
2007,06,18,20,35,14.50
2007,06,18,20,36,14.50
2007,06,18,20,37,14.40
2007,06,18,20,38,14.40
2007,06,18,20,39,14.40
2007,06,18,20,40,14.40
2007,06,18,20,41,14.30
2007,06,18,20,42,14.30
2007,06,18,20,43,14.30
2007,06,18,20,44,14.30
2007,06,18,20,45,14.20
2007,06,18,20,46,14.20
2007,06,18,20,47,14.20
2007,06,18,20,48,14.10
2007,06,18,20,49,14.10
2007,06,18,20,50,14.10
2007,06,18,20,51,14.10
2007,06,18,20,52,14.00
2007,06,18,20,53,14.00
2007,06,18,20,54,13.90
2007,06,18,20,55,13.90
2007,06,18,20,56,13.80
2007,06,18,20,57,13.80
2007,06,18,20,58,13.80
2007,06,18,20,59,13.80
2007,06,18,21,00,13.70
2007,06,18,21,01,13.70
2007,06,18,21,02,13.60
2007,06,18,21,03,13.60
2007,06,18,21,04,13.50
2007,06,18,21,05,13.50
2007,06,18,21,06,13.40
2007,06,18,21,07,13.40
2007,06,18,21,08,13.30
2007,06,18,21,09,13.30
2007,06,18,21,10,13.30
2007,06,18,21,11,13.30
2007,06,18,21,12,13.30
2007,06,18,21,13,13.20
2007,06,18,21,14,13.20
2007,06,18,21,15,13.20
2007,06,18,21,16,13.20
2007,06,18,21,17,13.10
2007,06,18,21,18,13.10
2007,06,18,21,19,13.10
2007,06,18,21,20,13.10
2007,06,18,21,21,13.00
2007,06,18,21,22,12.90
2007,06,18,21,23,12.90
2007,06,18,21,24,12.80
2007,06,18,21,25,12.80
2007,06,18,21,26,12.80
2007,06,18,21,27,12.80
2007,06,18,21,28,12.70
2007,06,18,21,29,12.70
2007,06,18,21,30,12.70
2007,06,18,21,31,12.70
2007,06,18,21,32,12.70
2007,06,18,21,33,12.70
2007,06,18,21,34,12.70
2007,06,18,21,35,12.70
2007,06,18,21,36,12.70
2007,06,18,21,37,12.60
2007,06,18,21,38,12.60
2007,06,18,21,39,12.60
2007,06,18,21,40,12.60
2007,06,18,21,41,12.60
2007,06,18,21,42,12.50
2007,06,18,21,43,12.50
2007,06,18,21,44,12.40
2007,06,18,21,45,12.40
2007,06,18,21,46,12.30
2007,06,18,21,47,12.30
2007,06,18,21,48,12.20
2007,06,18,21,49,12.20
2007,06,18,21,50,12.10
2007,06,18,21,51,12.10
2007,06,18,21,52,12.00
2007,06,18,21,53,11.90
2007,06,18,21,54,11.90
2007,06,18,21,55,11.80
2007,06,18,21,56,11.80
2007,06,18,21,57,11.70
2007,06,18,21,58,11.70
2007,06,18,21,59,11.60
2007,06,18,22,00,11.60
2007,06,18,22,01,11.50
2007,06,18,22,02,11.50
2007,06,18,22,03,11.40
2007,06,18,22,04,11.40
2007,06,18,22,05,11.30
2007,06,18,22,06,11.30
2007,06,18,22,07,11.30
2007,06,18,22,08,11.30
2007,06,18,22,09,11.30
2007,06,18,22,10,11.30
2007,06,18,22,11,11.30
2007,06,18,22,12,11.30
2007,06,18,22,13,11.30
2007,06,18,22,14,11.20
2007,06,18,22,15,11.20
2007,06,18,22,16,11.20
2007,06,18,22,17,11.20
2007,06,18,22,18,11.20
2007,06,18,22,19,11.20
2007,06,18,22,20,11.20
2007,06,18,22,21,11.20
2007,06,18,22,22,11.20
2007,06,18,22,23,11.20
2007,06,18,22,24,11.20
2007,06,18,22,25,11.20
